Location: Beneden-Haastrecht
(52.0012°N, 4.7557°E)
Time: 03:04:43
(UTC+00:00)

CSL-04 Rocket - Pass Details

Date: 24 October 2020
Orbit: 805 x 861 km, 98.9° (Epoch: 27 November)

Event Time Altitude Azimuth Distance (km) Brightness Sun altitude
Rises 18:19:01 0° 158° (SSE) 3,427 6.6 -17.8°
Reaches altitude 10° 18:21:23 10° 158° (SSE) 2,494 5.9 -18.2°
Maximum altitude 18:26:56 82° 73° (ENE) 873 3.6 -19.0°
Drops below altitude 10° 18:32:29 10° 346° (NNW) 2,491 6.4 -19.9°
Sets 18:34:51 0° 345° (NNW) 3,424 7.1 -20.2°
